Weather History for KPSC - July, 2013

Change the Weather History Date:

Sunday, July 7, 2013

  Actual Average Record
Temperature  
Mean Temperature 76 °F 72 °F  
Max Temperature 95 °F 90 °F 102 °F (2012)
Min Temperature 56 °F 54 °F 48 °F (1996)
Degree Days  
Heating Degree Days 0 0  
Month to date heating degree days 0 1  
Since 1 June heating degree days 19 33  
Since 1 July heating degree days 0 1  
Cooling Degree Days 11 7  
Month to date cooling degree days 103 46  
Year to date cooling degree days 273 188  
Since 1 June cooling degree days 227 155  
Growing Degree Days 26 (Base 50)    
Moisture  
Dew Point 52 °F    
Average Humidity 55    
Maximum Humidity 93    
Minimum Humidity 16    
Precipitation  
Precipitation 0.00 in 0.02 in 0.42 in (1948)
Month to date precipitation T 0.11  
Year to date precipitation 2.94 5.04  
Snow  
Snow 0.00 in - - ()
Snow Depth 0.00 in    
Sea Level Pressure  
Sea Level Pressure 29.77 in    
Wind  
Wind Speed 2 mph (North)    
Max Wind Speed 15 mph    
Max Gust Speed 18 mph    
Visibility 10 miles    
Events      
T = Trace of Precipitation, MM = Missing Value Source: NWS Daily Summary

Daily Weather History Graph

Daily Weather History Graph

Search for Another Location

Airport or City:

Trip Planner

Search our weather history database for the weather conditions in past years. The results will help you decide how hot, cold, wet, or windy it might be!

Date:

Astronomy

Jul. 07, 2013 Rise Set
Actual Time 5:12 AM PDT 8:49 PM PDT
Civil Twilight 4:34 AM PDT 9:27 PM PDT
Nautical Twilight 3:43 AM PDT 10:18 PM PDT
Astronomical Twilight 2:35 AM PDT 11:26 PM PDT
Moon 4:57 AM PDT (7/7) 8:11 PM PDT (7/7)
Length of Visible Light 16h 53m
Length of Day
15h 36m
Waning Crescent, 0% of the Moon is Illuminated
Jul 7
Waning Crescent
Jul 8
New
Jul 15
First Quarter
Jul 22
Full
Jul 29
Last Quarter

Hourly Weather History & Observations

Time (PDT) Temp. Heat Index Dew Point Humidity Pressure Visibility Wind Dir Wind Speed Gust Speed Precip Events Conditions
12:53 AM 62.1 °F - 55.0 °F 78% 29.77 in 10.0 mi Calm Calm - N/A   Clear
1:53 AM 60.1 °F - 55.0 °F 83% 29.78 in 10.0 mi Calm Calm - N/A   Clear
2:53 AM 60.1 °F - 55.9 °F 86% 29.78 in 10.0 mi North 3.5 mph - N/A   Clear
3:53 AM 59.0 °F - 55.9 °F 90% 29.79 in 10.0 mi NNE 3.5 mph - N/A   Clear
4:53 AM 57.9 °F - 55.0 °F 90% 29.80 in 10.0 mi Calm Calm - N/A   Clear
5:53 AM 57.9 °F - 54.0 °F 87% 29.82 in 10.0 mi Calm Calm - N/A   Clear
6:53 AM 64.9 °F - 53.1 °F 65% 29.83 in 10.0 mi East 3.5 mph - N/A   Clear
7:53 AM 71.1 °F - 52.0 °F 51% 29.84 in 10.0 mi Calm Calm - N/A   Clear
8:53 AM 73.0 °F - 53.1 °F 49% 29.84 in 10.0 mi Calm Calm - N/A   Clear
9:53 AM 78.1 °F - 50.0 °F 37% 29.83 in 10.0 mi ENE 4.6 mph - N/A   Clear
10:53 AM 80.1 °F - 50.0 °F 35% 29.82 in 10.0 mi Calm Calm - N/A   Clear
11:53 AM 84.9 °F - 52.0 °F 32% 29.81 in 10.0 mi NNW 4.6 mph - N/A   Clear
12:53 PM 88.0 °F - 52.0 °F 29% 29.79 in 10.0 mi Calm Calm - N/A   Clear
1:53 PM 89.1 °F - 48.0 °F 24% 29.77 in 10.0 mi Calm Calm - N/A   Clear
2:53 PM 91.9 °F - 46.0 °F 21% 29.75 in 10.0 mi North 6.9 mph - N/A   Partly Cloudy
3:53 PM 95.0 °F - 43.0 °F 17% 29.73 in 10.0 mi NNE 6.9 mph - N/A   Clear
4:53 PM 93.9 °F - 43.0 °F 17% 29.72 in 10.0 mi NNE 5.8 mph - N/A   Clear
5:53 PM 95.0 °F - 46.9 °F 19% 29.70 in 10.0 mi North 5.8 mph - N/A   Clear
6:53 PM 93.0 °F - 48.9 °F 22% 29.69 in 10.0 mi North 6.9 mph - N/A   Clear
7:53 PM 90.0 °F - 51.1 °F 26% 29.69 in 10.0 mi Calm Calm - N/A   Clear
8:53 PM 84.0 °F 82.6 °F 54.0 °F 35% 29.70 in 10.0 mi Calm Calm - N/A   Clear
9:53 PM 75.0 °F - 61.0 °F 62% 29.72 in 10.0 mi North 3.5 mph - N/A   Clear
10:53 PM 72.0 °F - 57.0 °F 59% 29.75 in 10.0 mi NNW 10.4 mph - N/A   Clear
11:53 PM 72.0 °F - 54.0 °F 53% 29.78 in 10.0 mi WNW 11.5 mph - N/A   Clear